Cortez, CO

10:43 PM MDT on August 26, 2016 (GMT -0600)
Cortez Municipal

Weather History for KCEZ - February, 2014

Change the Weather History Date:

Saturday, February 15, 2014

  Actual Average Record
Temperature  
Mean Temperature 47 °F 32 °F  
Max Temperature 65 °F 46 °F 65 °F (2014)
Min Temperature 28 °F 18 °F 9 °F (2009)
Degree Days  
Heating Degree Days 18 33  
Month to date heating degree days 488 516  
Since 1 July heating degree days 4244 4321  
Cooling Degree Days 0 0  
Month to date cooling degree days 0 0  
Year to date cooling degree days 0 0  
Moisture  
Dew Point 27 °F    
Average Humidity 56    
Maximum Humidity 92    
Minimum Humidity 19    
Precipitation  
Precipitation 0.00 in 0.04 in 0.01 in (2000)
Month to date precipitation 0.30 0.45  
Year to date precipitation 0.55 1.46  
Sea Level Pressure  
Sea Level Pressure 30.07 in    
Wind  
Wind Speed 5 mph (ENE)    
Max Wind Speed 15 mph    
Max Gust Speed 17 mph    
Visibility 10 miles    
Events      
T = Trace of Precipitation, MM = Missing Value Source: NWS Daily Summary

Daily Weather History Graph

Daily Weather History Graph

Search for Another Location

Airport or City:

Trip Planner

Search our weather history database for the weather conditions in past years. The results will help you decide how hot, cold, wet, or windy it might be!

Date:

Astronomy

Feb. 15, 2014 Rise Set
Actual Time 7:03 AM MST 5:54 PM MST
Civil Twilight 6:36 AM MST 6:21 PM MST
Nautical Twilight 6:06 AM MST 6:51 PM MST
Astronomical Twilight 5:35 AM MST 7:21 PM MST
Moon 6:54 PM MST (2/15) 7:05 AM MST (2/15)
Length of Visible Light 11h 44m
Length of Day
10h 50m
Waxing Gibbous, 99% of the Moon is Illuminated
Feb 15
Waxing Gibbous
Feb 22
Last Quarter
Mar 1
New
Mar 8
First Quarter
Mar 16
Full

Hourly Weather History & Observations

Time (MST) Temp. Windchill Dew Point Humidity Pressure Visibility Wind Dir Wind Speed Gust Speed Precip Events Conditions
12:53 AM 32.0 °F 26.4 °F 28.0 °F 85% 30.08 in 10.0 mi ENE 5.8 mph - N/A   Clear
1:53 AM 30.9 °F 25.2 °F 28.0 °F 89% 30.08 in 10.0 mi ENE 5.8 mph - N/A   Clear
2:53 AM 30.0 °F 25.2 °F 28.0 °F 92% 30.08 in 10.0 mi East 4.6 mph - N/A   Clear
3:53 AM 30.0 °F 24.1 °F 27.0 °F 88% 30.07 in 10.0 mi East 5.8 mph - N/A   Clear
4:53 AM 30.9 °F 23.5 °F 28.0 °F 89% 30.07 in 10.0 mi East 8.1 mph - N/A   Clear
5:53 AM 30.0 °F 25.2 °F 28.0 °F 92% 30.12 in 10.0 mi ENE 4.6 mph - N/A   Clear
6:53 AM 30.9 °F - 28.0 °F 89% 30.13 in 10.0 mi Calm Calm - N/A   Clear
7:53 AM 33.1 °F 27.7 °F 30.0 °F 89% 30.14 in 10.0 mi NE 5.8 mph - N/A   Clear
8:53 AM 39.0 °F 36.8 °F 32.0 °F 76% 30.14 in 10.0 mi Variable 3.5 mph - N/A   Clear
9:53 AM 46.9 °F - 33.1 °F 59% 30.12 in 10.0 mi Calm Calm - N/A   Clear
10:53 AM 54.0 °F - 30.9 °F 41% 30.09 in 10.0 mi Calm Calm - N/A   Clear
11:53 AM 59.0 °F - 21.0 °F 23% 30.06 in 10.0 mi Calm Calm - N/A   Clear
12:53 PM 62.1 °F - 19.9 °F 20% 30.04 in 10.0 mi SW 4.6 mph - N/A   Clear
1:53 PM 64.0 °F - 21.9 °F 20% 30.02 in 10.0 mi Variable 4.6 mph - N/A   Clear
2:53 PM 63.0 °F - 21.9 °F 21% 30.01 in 10.0 mi South 8.1 mph - N/A   Clear
3:53 PM 60.1 °F - 19.9 °F 21% 30.03 in 10.0 mi WNW 8.1 mph - N/A   Clear
4:53 PM 57.9 °F - 21.0 °F 24% 30.03 in 10.0 mi North - - N/A   Clear
5:53 PM 48.0 °F - 28.9 °F 48% 30.07 in 10.0 mi North - - N/A   Clear
6:53 PM 43.0 °F 39.5 °F 30.0 °F 60% 30.09 in 10.0 mi NNE 5.8 mph - N/A   Clear
7:53 PM 39.9 °F 35.1 °F 28.0 °F 63% 30.10 in 10.0 mi ENE 6.9 mph - N/A   Clear
8:53 PM 37.0 °F 31.0 °F 27.0 °F 67% 30.09 in 10.0 mi NE 8.1 mph - N/A   Clear
9:53 PM 34.0 °F 29.8 °F 26.1 °F 73% 30.06 in 10.0 mi NNE 4.6 mph - N/A   Clear
10:53 PM 34.0 °F 29.8 °F 26.1 °F 73% 30.04 in 10.0 mi East 4.6 mph - N/A   Clear
11:53 PM 35.1 °F 28.6 °F 27.0 °F 72% 29.99 in 10.0 mi East 8.1 mph - N/A   Clear